timestamp,wind_dir_avg,wind_spd_avg,wind_spd_max_dir,wind_spd_gust,battery_voltage,lat,long
2020-11-28 00:04:01+00:00,232.0,8.3,234.0,10.01,12.41,47.59359,-54.27349
2020-11-28 00:14:01+00:00,231.0,7.98,233.0,9.83,12.41,47.59359,-54.27349
2020-11-28 00:24:01+00:00,227.0,7.85,233.0,9.02,12.41,47.59359,-54.27349
2020-11-28 00:34:01+00:00,229.0,7.68,222.0,8.73,12.41,47.59359,-54.27349
2020-11-28 00:44:01+00:00,220.0,9.63,224.0,11.42,12.41,47.59359,-54.27349
2020-11-28 00:54:01+00:00,214.0,8.8,213.0,10.44,12.41,47.59359,-54.27349
2020-11-28 01:04:01+00:00,207.0,9.89,207.0,11.03,12.41,47.59359,-54.27349
2020-11-28 01:14:01+00:00,211.0,9.62,212.0,10.93,12.33,47.59359,-54.27349
2020-11-28 01:24:01+00:00,210.0,11.54,209.0,12.99,12.33,47.59359,-54.27349
2020-11-28 01:34:01+00:00,204.0,11.03,200.0,13.02,12.33,47.59359,-54.27349
2020-11-28 01:44:01+00:00,205.0,11.17,208.0,12.69,12.33,47.59359,-54.27349
2020-11-28 01:54:01+00:00,209.0,11.36,212.0,12.62,12.33,47.59359,-54.27349
2020-11-28 02:04:01+00:00,216.0,11.72,215.0,13.2,12.33,47.59359,-54.27349
2020-11-28 02:14:01+00:00,215.0,12.12,222.0,13.47,12.33,47.59359,-54.27349
2020-11-28 02:24:01+00:00,215.0,11.53,212.0,13.33,12.33,47.59359,-54.27349
2020-11-28 02:34:01+00:00,218.0,11.0,212.0,12.77,12.33,47.59359,-54.27349
2020-11-28 02:44:01+00:00,207.0,12.3,208.0,13.8,12.33,47.59359,-54.27349
2020-11-28 02:54:01+00:00,207.0,11.97,209.0,13.9,12.33,47.59359,-54.27349
2020-11-28 03:04:01+00:00,206.0,13.75,212.0,15.02,12.33,47.59359,-54.27349
2020-11-28 03:14:01+00:00,209.0,14.44,208.0,16.24,12.25,47.59359,-54.27349
2020-11-28 03:24:01+00:00,206.0,14.07,212.0,15.81,12.25,47.59359,-54.27349
2020-11-28 03:34:01+00:00,206.0,14.36,202.0,15.61,12.25,47.59359,-54.27349
2020-11-28 03:44:01+00:00,200.0,14.2,199.0,16.67,12.25,47.59359,-54.27349
2020-11-28 03:54:01+00:00,198.0,15.64,201.0,17.57,12.25,47.59359,-54.27349
2020-11-28 04:04:01+00:00,197.0,14.51,198.0,17.02,12.25,47.59359,-54.27349
2020-11-28 04:14:01+00:00,199.0,15.53,199.0,18.41,12.33,47.59359,-54.27349
2020-11-28 04:24:01+00:00,205.0,15.0,204.0,16.42,12.33,47.59359,-54.27349
2020-11-28 04:34:01+00:00,198.0,13.73,198.0,15.53,12.33,47.59359,-54.27349
2020-11-28 04:44:01+00:00,199.0,13.81,202.0,16.74,12.33,47.59359,-54.27349
2020-11-28 04:54:01+00:00,197.0,14.59,200.0,16.68,12.33,47.59359,-54.27349
2020-11-28 05:04:01+00:00,197.0,13.38,191.0,15.17,12.33,47.59359,-54.27349
2020-11-28 05:14:01+00:00,196.0,13.71,197.0,16.15,12.33,47.59359,-54.27349
2020-11-28 05:24:01+00:00,206.0,13.09,206.0,15.29,12.33,47.59359,-54.27349
2020-11-28 05:34:01+00:00,219.0,12.24,219.0,14.18,12.33,47.59359,-54.27349
2020-11-28 05:44:01+00:00,208.0,11.4,204.0,14.41,12.33,47.59359,-54.27349
2020-11-28 05:54:01+00:00,198.0,14.8,195.0,17.49,12.33,47.59359,-54.27349
2020-11-28 06:04:01+00:00,200.0,14.46,199.0,16.73,12.33,47.59359,-54.27349
2020-11-28 06:14:01+00:00,195.0,13.48,196.0,16.06,12.33,47.59359,-54.27349
2020-11-28 06:24:01+00:00,196.0,14.48,198.0,16.2,12.33,47.59359,-54.27349
2020-11-28 06:34:01+00:00,203.0,13.9,198.0,15.66,12.33,47.59359,-54.27349
2020-11-28 06:44:01+00:00,207.0,15.18,210.0,16.87,12.33,47.59359,-54.27349
2020-11-28 06:54:01+00:00,204.0,13.89,205.0,16.26,12.33,47.59359,-54.27349
2020-11-28 07:04:01+00:00,216.0,11.94,215.0,13.29,12.33,47.59359,-54.27349
2020-11-28 07:14:01+00:00,226.0,10.28,225.0,12.03,12.33,47.59359,-54.27349
2020-11-28 07:24:01+00:00,218.0,11.12,218.0,13.21,12.33,47.59359,-54.27349
2020-11-28 07:34:01+00:00,211.0,13.08,212.0,14.91,12.33,47.59359,-54.27349
2020-11-28 07:44:01+00:00,209.0,11.22,210.0,12.89,12.33,47.59359,-54.27349
2020-11-28 07:54:01+00:00,200.0,13.21,200.0,14.54,12.33,47.59359,-54.27349
2020-11-28 08:04:01+00:00,200.0,13.71,204.0,16.09,12.33,47.59359,-54.27349
2020-11-28 08:14:01+00:00,201.0,11.77,195.0,13.99,12.33,47.59359,-54.27349
2020-11-28 08:24:01+00:00,204.0,11.4,206.0,13.4,12.33,47.59359,-54.27349
2020-11-28 08:34:01+00:00,209.0,10.99,213.0,12.17,12.33,47.59359,-54.27349
2020-11-28 08:44:01+00:00,209.0,9.68,207.0,10.75,12.33,47.59359,-54.27349
2020-11-28 08:54:01+00:00,204.0,11.01,199.0,14.12,12.33,47.59359,-54.27349
2020-11-28 09:04:01+00:00,208.0,11.48,207.0,12.78,12.33,47.59359,-54.27349
2020-11-28 09:14:01+00:00,211.0,11.49,209.0,13.26,12.25,47.59359,-54.27349
2020-11-28 09:24:01+00:00,208.0,11.16,212.0,13.24,12.25,47.59359,-54.27349
2020-11-28 09:34:01+00:00,223.0,9.09,222.0,12.15,12.25,47.59359,-54.27349
2020-11-28 09:44:01+00:00,241.0,6.97,251.0,8.19,12.25,47.59359,-54.27349
2020-11-28 09:54:01+00:00,238.0,7.93,239.0,9.16,12.25,47.59359,-54.27349
2020-11-28 10:04:01+00:00,230.0,9.58,233.0,11.97,12.25,47.59359,-54.27349
2020-11-28 10:14:01+00:00,229.0,8.52,232.0,11.26,12.33,47.59359,-54.27349
2020-11-28 10:24:01+00:00,248.0,8.9,244.0,10.12,12.33,47.59359,-54.27349
2020-11-28 10:34:01+00:00,238.0,7.89,240.0,9.39,12.33,47.59359,-54.27349
2020-11-28 10:44:01+00:00,246.0,8.12,248.0,9.27,12.33,47.59359,-54.27349
2020-11-28 10:54:01+00:00,247.0,9.82,249.0,11.3,12.33,47.59359,-54.27349
2020-11-28 11:04:01+00:00,242.0,10.2,249.0,12.36,12.33,47.59359,-54.27349
2020-11-28 11:14:01+00:00,241.0,10.19,245.0,11.5,12.33,47.59359,-54.27349
2020-11-28 11:24:01+00:00,235.0,9.33,238.0,10.86,12.33,47.59359,-54.27349
2020-11-28 11:34:01+00:00,232.0,9.49,237.0,11.24,12.33,47.59359,-54.27349
2020-11-28 11:44:01+00:00,232.0,9.54,238.0,11.75,12.33,47.59359,-54.27349
2020-11-28 11:54:01+00:00,226.0,9.92,222.0,11.62,12.33,47.59359,-54.27349
2020-11-28 12:04:01+00:00,225.0,9.46,227.0,11.13,12.33,47.59359,-54.27349
2020-11-28 12:14:01+00:00,221.0,8.76,221.0,9.84,12.25,47.59359,-54.27349
2020-11-28 12:24:01+00:00,221.0,9.99,216.0,11.64,12.25,47.59359,-54.27349
2020-11-28 12:34:01+00:00,231.0,10.27,232.0,11.73,12.25,47.59359,-54.27349
2020-11-28 12:44:01+00:00,228.0,11.15,220.0,12.72,12.25,47.59359,-54.27349
2020-11-28 12:54:01+00:00,228.0,9.05,222.0,10.25,12.25,47.59359,-54.27349
2020-11-28 13:04:01+00:00,231.0,9.13,237.0,10.73,12.25,47.59359,-54.27349
2020-11-28 13:14:01+00:00,229.0,9.25,235.0,10.98,12.49,47.59359,-54.27349
2020-11-28 13:24:01+00:00,223.0,7.91,216.0,9.51,12.49,47.59359,-54.27349
2020-11-28 13:34:01+00:00,218.0,8.78,220.0,10.47,12.49,47.59359,-54.27349
2020-11-28 13:44:01+00:00,217.0,10.0,218.0,11.26,12.49,47.59359,-54.27349
2020-11-28 13:54:01+00:00,215.0,9.3,209.0,11.09,12.49,47.59359,-54.27349
2020-11-28 14:04:01+00:00,222.0,8.2,226.0,10.4,12.49,47.59359,-54.27349
2020-11-28 14:14:01+00:00,215.0,8.78,222.0,9.79,12.89,47.59359,-54.27349
2020-11-28 14:24:01+00:00,213.0,8.86,215.0,9.9,12.89,47.59359,-54.27349
2020-11-28 14:34:01+00:00,218.0,8.78,206.0,11.27,12.89,47.59359,-54.27349
2020-11-28 14:44:01+00:00,213.0,8.18,214.0,9.18,12.89,47.59359,-54.27349
2020-11-28 14:54:01+00:00,204.0,7.21,209.0,7.9,12.89,47.59359,-54.27349
2020-11-28 15:04:01+00:00,209.0,7.51,216.0,8.22,12.89,47.59359,-54.27349
2020-11-28 15:14:01+00:00,208.0,6.51,210.0,7.57,12.81,47.59359,-54.27349
2020-11-28 15:24:01+00:00,210.0,6.44,210.0,7.27,12.81,47.59359,-54.27349
2020-11-28 15:34:01+00:00,213.0,7.84,212.0,8.77,12.81,47.59359,-54.27349
2020-11-28 15:44:01+00:00,208.0,7.49,207.0,8.29,12.81,47.59359,-54.27349
2020-11-28 15:54:01+00:00,202.0,7.57,206.0,8.34,12.81,47.59359,-54.27349
2020-11-28 16:04:01+00:00,201.0,8.21,203.0,8.94,12.81,47.59359,-54.27349
2020-11-28 16:14:01+00:00,216.0,7.03,212.0,8.25,12.73,47.59359,-54.27349
2020-11-28 16:24:01+00:00,218.0,6.74,219.0,7.68,12.73,47.59359,-54.27349
2020-11-28 16:34:01+00:00,218.0,5.64,215.0,6.08,12.73,47.59359,-54.27349
2020-11-28 16:44:01+00:00,208.0,6.39,207.0,7.03,12.73,47.59359,-54.27349
2020-11-28 16:54:01+00:00,218.0,6.9,219.0,8.08,12.73,47.59359,-54.27349
2020-11-28 17:04:01+00:00,221.0,5.92,225.0,6.85,12.73,47.59359,-54.27349
2020-11-28 17:14:01+00:00,206.0,5.77,214.0,6.59,12.57,47.59359,-54.27349
2020-11-28 17:24:01+00:00,205.0,6.92,205.0,7.52,12.57,47.59359,-54.27349
2020-11-28 17:34:01+00:00,198.0,7.14,199.0,7.68,12.57,47.59359,-54.27349
2020-11-28 17:44:01+00:00,193.0,7.31,194.0,7.96,12.57,47.59359,-54.27349
2020-11-28 17:54:01+00:00,191.0,6.61,193.0,7.47,12.57,47.59359,-54.27349
2020-11-28 18:04:01+00:00,204.0,7.26,200.0,8.58,12.57,47.59359,-54.27349
2020-11-28 18:14:01+00:00,212.0,6.46,212.0,7.41,12.57,47.59359,-54.27349
2020-11-28 18:24:01+00:00,212.0,7.41,213.0,8.27,12.57,47.59359,-54.27349
2020-11-28 18:34:01+00:00,227.0,6.76,227.0,7.94,12.57,47.59359,-54.27349
2020-11-28 18:44:01+00:00,227.0,7.12,231.0,8.12,12.57,47.59359,-54.27349
2020-11-28 18:54:01+00:00,222.0,6.2,220.0,7.31,12.57,47.59359,-54.27349
2020-11-28 19:04:01+00:00,217.0,8.31,216.0,8.87,12.57,47.59359,-54.27349
2020-11-28 19:14:01+00:00,212.0,7.18,210.0,8.08,12.41,47.59359,-54.27349
2020-11-28 19:24:01+00:00,207.0,7.96,208.0,8.73,12.41,47.59359,-54.27349
2020-11-28 19:34:01+00:00,210.0,5.95,211.0,6.82,12.41,47.59359,-54.27349
2020-11-28 19:44:01+00:00,206.0,5.2,202.0,5.68,12.41,47.59359,-54.27349
2020-11-28 19:54:01+00:00,215.0,5.37,215.0,5.89,12.41,47.59359,-54.27349
2020-11-28 20:04:01+00:00,212.0,4.87,213.0,5.34,12.41,47.59359,-54.27349
2020-11-28 20:14:01+00:00,203.0,4.73,210.0,5.2,12.33,47.59359,-54.27349
2020-11-28 20:24:01+00:00,199.0,4.99,204.0,5.51,12.33,47.59359,-54.27349
2020-11-28 20:34:01+00:00,197.0,5.18,196.0,5.72,12.33,47.59359,-54.27349
2020-11-28 20:44:01+00:00,199.0,4.15,204.0,4.66,12.33,47.59359,-54.27349
2020-11-28 20:54:01+00:00,193.0,3.83,194.0,4.21,12.33,47.59359,-54.27349
2020-11-28 21:04:01+00:00,198.0,6.09,194.0,7.83,12.33,47.59359,-54.27349
2020-11-28 21:14:01+00:00,203.0,5.95,202.0,6.7,12.33,47.59359,-54.27349
2020-11-28 21:24:01+00:00,209.0,4.14,212.0,4.77,12.33,47.59359,-54.27349
2020-11-28 21:34:01+00:00,220.0,5.43,223.0,6.05,12.33,47.59359,-54.27349
2020-11-28 21:44:01+00:00,215.0,4.87,222.0,5.54,12.33,47.59359,-54.27349
2020-11-28 21:54:01+00:00,218.0,5.29,221.0,5.75,12.33,47.59359,-54.27349
2020-11-28 22:04:01+00:00,234.0,4.06,234.0,4.38,12.33,47.59359,-54.27349
2020-11-28 22:14:01+00:00,241.0,3.71,243.0,4.05,12.25,47.59359,-54.27349
2020-11-28 22:24:01+00:00,232.0,2.57,234.0,2.88,12.25,47.59359,-54.27349
2020-11-28 22:34:01+00:00,198.0,2.58,196.0,2.81,12.25,47.59359,-54.27349
2020-11-28 22:44:01+00:00,190.0,3.33,188.0,3.45,12.25,47.59359,-54.27349
2020-11-28 22:54:01+00:00,194.0,2.76,194.0,2.91,12.25,47.59359,-54.27349
2020-11-28 23:04:01+00:00,204.0,2.47,204.0,2.62,12.25,47.59359,-54.27349
2020-11-28 23:14:01+00:00,188.0,2.99,187.0,3.26,12.33,47.59359,-54.27349
2020-11-28 23:24:01+00:00,217.0,2.89,216.0,3.09,12.33,47.59359,-54.27349
2020-11-28 23:34:01+00:00,180.0,2.37,184.0,2.62,12.33,47.59359,-54.27349
2020-11-28 23:44:01+00:00,139.0,1.58,137.0,1.89,12.33,47.59359,-54.27349
2020-11-28 23:54:01+00:00,180.0,0.87,175.0,1.18,12.33,47.59359,-54.27349
